Location: Mohawk View
(42.7837°N, 73.7885°W)
Time: 15:03:03
(UTC+00:00)

IRS-1C - Pass Details

Date: 17 June 2021
Orbit: 815 x 817 km, 98.9° (Epoch: 02 August)

Event Time Altitude Azimuth Distance (km) Brightness Sun altitude
Rises 08:13:48 0° 11° (N) 3,354 8.4 -9.7°
Reaches altitude 10° 08:16:09 10° 9° (N) 2,418 7.5 -9.4°
Maximum altitude 08:21:28 70° 288° (WNW) 870 4.2 -8.7°
Drops below altitude 10° 08:26:45 10° 205° (SSW) 2,400 6.0 -8.0°
Enters shadow 08:27:23 - 204° (SSW) 2,651 6.2 -7.9°
